ALOS-2

Last updated on Wed Mar 11 2026 00:02:19 GMT+0000 (Coordinated Universal Time)

1 39766U 14029A 26069.53039536 .00001001 00000+0 14078-3 0 9998 2 39766 97.9189 168.1152 0001388 97.1905 262.9464 14.79506610636996
UTC large
Height (km)
Speed (km/s)
/
Latitude / Longitude
Inclination (degrees)
Orbital Period (minutes)
Azimuth
Elevation
Range (km)
Doppler Factor

Next 0 passes for location: London (51.5072 / 0.1276)

Sorry there are no passes over London.